Time,TemperatureF,DewpointF,PressureIn,WindDirection,WindDirectionDegrees,WindSpeedMPH,WindSpeedGustMPH,Humidity,HourlyPrecipIn,Conditions,Clouds,dailyrainin,SoftwareType,DateUTC
2013-10-12 00:00:00,52.6,45.6,29.66,SW,233,10.0,21.0,77,0.00,,OVC031,0.74,VWS V14.01,2013-10-12 05:00:00,
2013-10-12 00:10:00,52.6,45.6,29.66,SSW,192,9.0,17.8,77,0.00,,OVC033,0.00,VWS V14.01,2013-10-12 05:10:00,
2013-10-12 00:15:00,52.5,45.8,29.66,WSW,246,9.0,17.8,78,0.00,,OVC033,0.00,VWS V14.01,2013-10-12 05:15:00,
2013-10-12 00:20:00,52.5,45.8,29.66,SSW,213,8.0,15.7,78,0.00,,OVC033,0.00,VWS V14.01,2013-10-12 05:20:00,
2013-10-12 00:25:00,52.5,45.8,29.66,SW,235,6.0,14.7,78,0.00,,OVC035,0.00,VWS V14.01,2013-10-12 05:25:00,
2013-10-12 00:35:00,52.6,45.6,29.67,SW,231,6.0,15.7,77,0.00,,OVC035,0.00,VWS V14.01,2013-10-12 05:35:00,
2013-10-12 00:40:00,52.6,45.6,29.66,SW,229,11.0,16.8,77,0.00,,OVC035,0.00,VWS V14.01,2013-10-12 05:40:00,
2013-10-12 00:45:00,52.7,45.7,29.66,SW,227,12.0,16.8,77,0.00,,OVC035,0.00,VWS V14.01,2013-10-12 05:45:00,
2013-10-12 00:50:00,52.6,45.6,29.66,SW,233,11.0,13.6,77,0.00,,OVC035,0.00,VWS V14.01,2013-10-12 05:50:00,
2013-10-12 01:00:00,52.5,45.5,29.66,SW,217,10.0,15.7,77,0.00,,OVC035,0.00,VWS V14.01,2013-10-12 06:00:00,
2013-10-12 01:05:00,52.6,45.6,29.67,SW,226,13.0,17.8,77,0.00,,OVC035,0.00,VWS V14.01,2013-10-12 06:05:00,
2013-10-12 01:10:00,52.7,45.4,29.67,SW,227,7.0,16.8,76,0.00,,OVC035,0.00,VWS V14.01,2013-10-12 06:10:00,
2013-10-12 01:15:00,52.7,45.4,29.67,SW,217,10.0,15.7,76,0.00,,OVC035,0.00,VWS V14.01,2013-10-12 06:15:00,
2013-10-12 01:20:00,52.6,45.3,29.67,SW,232,3.0,14.7,76,0.00,,OVC035,0.00,VWS V14.01,2013-10-12 06:20:00,
2013-10-12 01:25:00,52.5,45.2,29.67,WSW,255,8.0,13.6,76,0.00,,BKN037,0.00,VWS V14.01,2013-10-12 06:25:00,
2013-10-12 01:30:00,52.4,45.1,29.67,SW,232,7.0,15.7,76,0.00,,BKN037,0.00,VWS V14.01,2013-10-12 06:30:00,
2013-10-12 01:40:00,52.1,45.1,29.68,SW,223,6.0,14.7,77,0.00,,BKN037,0.00,VWS V14.01,2013-10-12 06:40:00,
2013-10-12 01:45:00,52.1,45.1,29.68,SW,225,9.0,13.6,77,0.00,,OVC037,0.00,VWS V14.01,2013-10-12 06:45:00,
2013-10-12 01:55:00,52.1,45.1,29.68,SW,215,8.0,14.7,77,0.00,,OVC037,0.00,VWS V14.01,2013-10-12 06:55:00,
2013-10-12 02:00:00,52.1,45.1,29.68,SW,218,7.0,14.7,77,0.00,,OVC037,0.00,VWS V14.01,2013-10-12 07:00:00,
2013-10-12 02:10:00,52.4,45.1,29.69,SSW,207,9.0,18.9,76,0.00,,OVC035,0.00,VWS V14.01,2013-10-12 07:10:00,
2013-10-12 02:15:00,52.6,44.9,29.69,SW,214,10.0,18.9,75,0.00,,OVC035,0.00,VWS V14.01,2013-10-12 07:15:00,
2013-10-12 02:25:00,52.9,45.2,29.69,WSW,243,9.0,18.9,75,0.00,,OVC035,0.00,VWS V14.01,2013-10-12 07:25:00,
2013-10-12 02:30:00,52.9,45.2,29.69,SSW,200,14.0,17.8,75,0.00,,OVC035,0.00,VWS V14.01,2013-10-12 07:30:00,
2013-10-12 02:35:00,52.9,45.2,29.69,SW,220,9.0,15.7,75,0.00,,OVC035,0.00,VWS V14.01,2013-10-12 07:35:00,
2013-10-12 02:40:00,52.9,44.8,29.70,SW,236,14.0,21.0,74,0.00,,OVC035,0.00,VWS V14.01,2013-10-12 07:40:00,
2013-10-12 02:45:00,52.8,45.1,29.70,SSW,208,8.0,15.7,75,0.00,,OVC035,0.00,VWS V14.01,2013-10-12 07:45:00,
2013-10-12 02:50:00,52.7,45.0,29.70,SW,224,9.0,18.9,75,0.00,,OVC035,0.00,VWS V14.01,2013-10-12 07:50:00,
2013-10-12 03:00:00,52.6,45.3,29.70,SW,227,7.0,14.7,76,0.00,,OVC035,0.00,VWS V14.01,2013-10-12 08:00:00,
2013-10-12 03:05:00,52.6,45.3,29.71,SW,215,9.0,13.6,76,0.00,,OVC035,0.00,VWS V14.01,2013-10-12 08:05:00,
2013-10-12 03:10:00,52.5,45.2,29.70,SW,227,8.0,16.8,76,0.00,,OVC035,0.00,VWS V14.01,2013-10-12 08:10:00,
2013-10-12 03:15:00,52.6,44.9,29.70,SW,223,12.0,19.9,75,0.00,,OVC035,0.00,VWS V14.01,2013-10-12 08:15:00,
2013-10-12 03:20:00,52.7,45.0,29.71,SW,227,10.0,15.7,75,0.00,,OVC035,0.00,VWS V14.01,2013-10-12 08:20:00,
2013-10-12 03:25:00,52.8,44.8,29.70,SW,236,18.0,21.0,74,0.00,,OVC035,0.00,VWS V14.01,2013-10-12 08:25:00,
2013-10-12 03:30:00,52.8,44.4,29.70,SW,228,17.0,23.1,73,0.00,,OVC035,0.00,VWS V14.01,2013-10-12 08:30:00,
2013-10-12 03:35:00,52.8,44.0,29.71,WSW,248,11.0,21.0,72,0.00,,OVC035,0.00,VWS V14.01,2013-10-12 08:35:00,
2013-10-12 03:45:00,52.6,44.2,29.71,SW,228,8.0,15.7,73,0.00,,OVC035,0.00,VWS V14.01,2013-10-12 08:45:00,
2013-10-12 03:50:00,52.3,43.9,29.71,SW,218,9.0,14.7,73,0.00,,OVC035,0.00,VWS V14.01,2013-10-12 08:50:00,
2013-10-12 03:55:00,52.1,44.1,29.72,SSW,212,11.0,14.7,74,0.00,,OVC035,0.00,VWS V14.01,2013-10-12 08:55:00,
2013-10-12 04:00:00,52.0,44.3,29.71,WSW,246,5.0,14.7,75,0.00,,OVC035,0.00,VWS V14.01,2013-10-12 09:00:00,
2013-10-12 04:05:00,51.8,44.1,29.71,SW,221,6.0,11.5,75,0.00,,SCT035,0.00,VWS V14.01,2013-10-12 09:05:00,
2013-10-12 04:15:00,50.8,43.9,29.71,SW,224,3.0,9.4,77,0.00,,SCT035,0.00,VWS V14.01,2013-10-12 09:15:00,
2013-10-12 04:20:00,50.4,43.8,29.71,SW,220,7.0,11.5,78,0.00,,SCT035,0.00,VWS V14.01,2013-10-12 09:20:00,
2013-10-12 04:25:00,50.4,43.8,29.72,SSW,210,7.0,16.8,78,0.00,,BKN035,0.00,VWS V14.01,2013-10-12 09:25:00,
2013-10-12 04:35:00,50.9,44.0,29.72,WSW,242,14.0,15.7,77,0.00,,BKN035,0.00,VWS V14.01,2013-10-12 09:35:00,
2013-10-12 04:40:00,51.0,44.0,29.72,NW,320,6.0,14.7,77,0.00,,BKN035,0.00,VWS V14.01,2013-10-12 09:40:00,
2013-10-12 04:45:00,51.0,44.0,29.72,SW,215,7.0,15.7,77,0.00,,OVC033,0.00,VWS V14.01,2013-10-12 09:45:00,
2013-10-12 04:55:00,51.0,44.0,29.73,SW,229,11.0,15.7,77,0.00,,OVC033,0.00,VWS V14.01,2013-10-12 09:55:00,
2013-10-12 05:00:00,51.0,44.0,29.73,SW,229,8.0,13.6,77,0.00,,OVC033,0.00,VWS V14.01,2013-10-12 10:00:00,
2013-10-12 05:05:00,51.0,44.0,29.73,WSW,243,11.0,16.8,77,0.00,,OVC033,0.00,VWS V14.01,2013-10-12 10:05:00,
2013-10-12 05:15:00,51.2,43.9,29.74,SW,230,7.0,16.8,76,0.00,,OVC033,0.00,VWS V14.01,2013-10-12 10:15:00,
2013-10-12 05:25:00,51.5,43.8,29.74,SW,218,10.0,18.9,75,0.00,,OVC033,0.00,VWS V14.01,2013-10-12 10:25:00,
2013-10-12 05:30:00,51.4,43.8,29.74,SW,225,11.0,19.9,75,0.00,,OVC033,0.00,VWS V14.01,2013-10-12 10:30:00,
2013-10-12 05:35:00,51.4,43.8,29.75,SW,221,9.0,22.0,75,0.00,,OVC033,0.00,VWS V14.01,2013-10-12 10:35:00,
2013-10-12 05:40:00,51.2,43.6,29.75,SW,234,10.0,15.7,75,0.00,,OVC033,0.00,VWS V14.01,2013-10-12 10:40:00,
2013-10-12 05:45:00,51.1,43.5,29.75,SW,227,9.0,12.6,75,0.00,,OVC040,0.00,VWS V14.01,2013-10-12 10:45:00,
2013-10-12 05:50:00,51.1,43.5,29.75,SSW,208,6.0,13.6,75,0.00,,OVC040,0.00,VWS V14.01,2013-10-12 10:50:00,
2013-10-12 05:55:00,51.0,43.7,29.75,SW,225,10.0,15.7,76,0.00,,OVC040,0.00,VWS V14.01,2013-10-12 10:55:00,
2013-10-12 06:00:00,51.0,43.4,29.76,SW,231,5.0,15.7,75,0.00,,OVC040,0.00,VWS V14.01,2013-10-12 11:00:00,
2013-10-12 06:05:00,50.8,43.5,29.76,SW,232,8.0,12.6,76,0.00,,OVC043,0.00,VWS V14.01,2013-10-12 11:05:00,
2013-10-12 06:10:00,50.8,43.5,29.76,West,261,18.0,18.9,76,0.00,,OVC043,0.00,VWS V14.01,2013-10-12 11:10:00,
2013-10-12 06:20:00,51.0,43.4,29.76,SW,225,8.0,15.7,75,0.00,,OVC043,0.00,VWS V14.01,2013-10-12 11:20:00,
2013-10-12 06:30:00,51.1,43.1,29.76,SW,226,11.0,23.1,74,0.00,,OVC035,0.00,VWS V14.01,2013-10-12 11:30:00,
2013-10-12 06:35:00,51.1,43.1,29.76,SW,216,9.0,19.9,74,0.00,,OVC035,0.00,VWS V14.01,2013-10-12 11:35:00,
2013-10-12 06:40:00,51.0,43.0,29.76,SW,219,9.0,23.1,74,0.00,,OVC047,0.00,VWS V14.01,2013-10-12 11:40:00,
2013-10-12 06:50:00,50.7,43.1,29.76,SSW,207,12.0,21.0,75,0.00,,OVC047,0.00,VWS V14.01,2013-10-12 11:50:00,
2013-10-12 06:55:00,50.6,43.0,29.77,WSW,251,15.0,17.8,75,0.00,,OVC047,0.00,VWS V14.01,2013-10-12 11:55:00,
2013-10-12 07:00:00,50.6,43.0,29.77,WSW,238,13.0,17.8,75,0.00,,OVC047,0.00,VWS V14.01,2013-10-12 12:00:00,
2013-10-12 07:05:00,50.6,43.0,29.77,WNW,284,9.0,18.9,75,0.00,,OVC049,0.00,VWS V14.01,2013-10-12 12:05:00,
2013-10-12 07:10:00,50.6,43.0,29.77,SW,236,6.0,24.1,75,0.00,,OVC049,0.00,VWS V14.01,2013-10-12 12:10:00,
2013-10-12 07:15:00,50.5,42.9,29.77,SW,236,15.0,17.8,75,0.00,,OVC049,0.00,VWS V14.01,2013-10-12 12:15:00,
2013-10-12 07:20:00,50.3,43.0,29.77,SW,227,13.0,23.1,76,0.00,,OVC035,0.00,VWS V14.01,2013-10-12 12:20:00,
2013-10-12 07:25:00,50.4,43.1,29.77,WSW,239,11.0,18.9,76,0.00,,OVC035,0.00,VWS V14.01,2013-10-12 12:25:00,
2013-10-12 07:30:00,50.5,42.9,29.77,SW,234,9.0,19.9,75,0.00,,OVC035,0.00,VWS V14.01,2013-10-12 12:30:00,
2013-10-12 07:35:00,50.6,43.3,29.77,SW,234,12.0,15.7,76,0.00,,OVC035,0.00,VWS V14.01,2013-10-12 12:35:00,
2013-10-12 07:40:00,50.6,43.0,29.78,SW,225,8.0,21.0,75,0.00,,OVC035,0.00,VWS V14.01,2013-10-12 12:40:00,
2013-10-12 07:50:00,50.8,43.2,29.78,WSW,250,10.0,19.9,75,0.00,,OVC037,0.00,VWS V14.01,2013-10-12 12:50:00,
2013-10-12 07:55:00,50.8,43.2,29.79,SW,219,6.0,17.8,75,0.00,,OVC037,0.00,VWS V14.01,2013-10-12 12:55:00,
2013-10-12 08:05:00,50.7,43.1,29.79,SW,229,8.0,17.8,75,0.00,,OVC035,0.00,VWS V14.01,2013-10-12 13:05:00,
2013-10-12 08:10:00,50.7,43.1,29.80,SW,229,6.0,17.8,75,0.00,,OVC035,0.00,VWS V14.01,2013-10-12 13:10:00,
2013-10-12 08:15:00,50.8,43.2,29.80,WSW,247,13.0,19.9,75,0.00,,OVC035,0.00,VWS V14.01,2013-10-12 13:15:00,
2013-10-12 08:20:00,50.9,43.3,29.80,SW,229,8.0,18.9,75,0.00,,OVC035,0.00,VWS V14.01,2013-10-12 13:20:00,
2013-10-12 08:30:00,50.8,42.8,29.80,NW,312,6.0,23.1,74,0.00,,OVC033,0.00,VWS V14.01,2013-10-12 13:30:00,
2013-10-12 08:35:00,50.8,42.8,29.81,West,259,9.0,17.8,74,0.00,,OVC033,0.00,VWS V14.01,2013-10-12 13:35:00,
2013-10-12 08:40:00,50.8,43.2,29.81,West,275,9.0,17.8,75,0.00,,OVC033,0.00,VWS V14.01,2013-10-12 13:40:00,
2013-10-12 08:45:00,50.8,43.5,29.81,WSW,252,9.0,26.2,76,0.00,,OVC043,0.00,VWS V14.01,2013-10-12 13:45:00,
2013-10-12 08:50:00,50.8,43.5,29.81,SW,223,17.0,21.0,76,0.00,,OVC043,0.00,VWS V14.01,2013-10-12 13:50:00,
2013-10-12 09:00:00,50.9,43.3,29.81,NW,306,11.0,18.9,75,0.00,,OVC043,0.00,VWS V14.01,2013-10-12 14:00:00,
2013-10-12 09:05:00,50.7,43.1,29.81,SW,231,7.0,15.7,75,0.00,,BKN050,0.00,VWS V14.01,2013-10-12 14:05:00,
2013-10-12 09:10:00,51.2,43.6,29.81,West,277,12.0,18.9,75,0.00,,BKN050,0.00,VWS V14.01,2013-10-12 14:10:00,
2013-10-12 09:20:00,52.0,43.6,29.82,WNW,287,8.0,25.2,73,0.00,,BKN050,0.00,VWS V14.01,2013-10-12 14:20:00,
2013-10-12 09:25:00,52.3,43.9,29.82,West,261,14.0,21.0,73,0.00,,BKN050,0.00,VWS V14.01,2013-10-12 14:25:00,
2013-10-12 09:30:00,52.1,43.4,29.82,West,275,11.0,25.2,72,0.00,,BKN050,0.00,VWS V14.01,2013-10-12 14:30:00,
2013-10-12 09:40:00,51.4,43.0,29.82,West,259,11.0,23.1,73,0.00,,BKN050,0.00,VWS V14.01,2013-10-12 14:40:00,
2013-10-12 09:50:00,51.2,42.9,29.83,WSW,250,12.0,18.9,73,0.00,,OVC042,0.00,VWS V14.01,2013-10-12 14:50:00,
2013-10-12 10:00:00,51.5,43.1,29.83,WSW,237,12.0,21.0,73,0.00,,OVC042,0.00,VWS V14.01,2013-10-12 15:00:00,
2013-10-12 10:05:00,51.5,42.8,29.84,WNW,284,14.0,22.0,72,0.00,,OVC040,0.00,VWS V14.01,2013-10-12 15:05:00,
2013-10-12 10:10:00,51.4,42.7,29.84,WSW,239,8.0,19.9,72,0.00,,OVC040,0.00,VWS V14.01,2013-10-12 15:10:00,
2013-10-12 10:15:00,51.4,43.0,29.84,West,273,12.0,25.2,73,0.00,,OVC040,0.00,VWS V14.01,2013-10-12 15:15:00,
2013-10-12 10:20:00,51.3,42.6,29.85,WNW,287,15.0,21.0,72,0.00,,OVC040,0.00,VWS V14.01,2013-10-12 15:20:00,
2013-10-12 10:25:00,51.2,42.5,29.85,SSW,203,10.0,19.9,72,0.00,,OVC060,0.00,VWS V14.01,2013-10-12 15:25:00,
2013-10-12 10:30:00,51.4,43.0,29.85,WNW,294,12.0,15.7,73,0.00,,OVC060,0.00,VWS V14.01,2013-10-12 15:30:00,
2013-10-12 10:40:00,51.4,42.7,29.85,West,277,18.0,22.0,72,0.00,,OVC060,0.00,VWS V14.01,2013-10-12 15:40:00,
2013-10-12 10:45:00,51.2,42.5,29.86,West,277,13.0,23.1,72,0.00,,OVC060,0.00,VWS V14.01,2013-10-12 15:45:00,
2013-10-12 10:50:00,51.1,42.4,29.86,SW,223,13.0,22.0,72,0.00,,OVC060,0.00,VWS V14.01,2013-10-12 15:50:00,
2013-10-12 10:55:00,50.9,42.6,29.86,West,264,7.0,27.3,73,0.00,,OVC060,0.00,VWS V14.01,2013-10-12 15:55:00,
2013-10-12 11:05:00,50.6,42.3,29.87,SW,214,10.0,16.8,73,0.00,,OVC043,0.00,VWS V14.01,2013-10-12 16:05:00,
2013-10-12 11:15:00,50.5,42.2,29.87,WSW,248,12.0,16.8,73,0.00,,OVC043,0.00,VWS V14.01,2013-10-12 16:15:00,
2013-10-12 11:20:00,50.5,42.5,29.88,WSW,246,12.0,16.8,74,0.00,,OVC043,0.00,VWS V14.01,2013-10-12 16:20:00,
2013-10-12 11:25:00,50.5,42.5,29.88,West,267,10.0,23.1,74,0.00,,OVC037,0.00,VWS V14.01,2013-10-12 16:25:00,
2013-10-12 11:30:00,50.4,42.4,29.88,SW,232,7.0,17.8,74,0.00,,OVC037,0.00,VWS V14.01,2013-10-12 16:30:00,
2013-10-12 11:35:00,50.3,42.3,29.89,West,277,9.0,19.9,74,0.00,,OVC037,0.00,VWS V14.01,2013-10-12 16:35:00,
2013-10-12 11:40:00,50.1,42.2,29.89,WNW,288,19.0,21.0,74,0.00,,OVC037,0.00,VWS V14.01,2013-10-12 16:40:00,
2013-10-12 11:45:00,49.9,42.3,29.90,SW,232,13.0,19.9,75,0.00,,-RA,0.00,VWS V14.01,2013-10-12 16:45:00,
2013-10-12 11:50:00,49.6,42.4,29.90,SW,235,7.0,24.1,76,0.00,,-RA,0.00,VWS V14.01,2013-10-12 16:50:00,
2013-10-12 12:00:00,48.8,42.9,29.91,West,267,9.0,19.9,80,0.00,,-RA,0.00,VWS V14.01,2013-10-12 17:00:00,
2013-10-12 12:05:00,48.4,42.8,29.91,NW,305,9.0,16.8,81,0.00,,,0.00,VWS V14.01,2013-10-12 17:05:00,
2013-10-12 12:10:00,48.1,42.5,29.92,West,276,16.0,21.0,81,0.00,,,0.00,VWS V14.01,2013-10-12 17:10:00,
2013-10-12 12:20:00,47.6,42.1,29.93,WSW,258,11.0,18.9,81,0.00,,,0.00,VWS V14.01,2013-10-12 17:20:00,
2013-10-12 12:25:00,47.4,41.9,29.93,WSW,240,5.0,18.9,81,0.01,,,0.01,VWS V14.01,2013-10-12 17:25:00,
2013-10-12 12:30:00,47.2,41.7,29.93,West,279,16.0,19.9,81,0.01,,,0.01,VWS V14.01,2013-10-12 17:30:00,
2013-10-12 12:35:00,47.2,41.7,29.93,NW,309,9.0,18.9,81,0.01,,,0.01,VWS V14.01,2013-10-12 17:35:00,
2013-10-12 12:40:00,47.3,42.1,29.93,West,273,11.0,15.7,82,0.01,,,0.01,VWS V14.01,2013-10-12 17:40:00,
2013-10-12 12:45:00,47.4,41.9,29.94,WSW,258,7.0,15.7,81,0.01,,-RA,0.01,VWS V14.01,2013-10-12 17:45:00,
2013-10-12 12:50:00,47.6,42.1,29.94,SW,215,4.0,11.5,81,0.01,,-RA,0.01,VWS V14.01,2013-10-12 17:50:00,
2013-10-12 12:55:00,47.7,42.2,29.94,SSW,210,8.0,14.7,81,0.01,,-RA,0.01,VWS V14.01,2013-10-12 17:55:00,
2013-10-12 13:00:00,48.1,42.5,29.94,WSW,250,4.0,14.7,81,0.01,,-RA,0.01,VWS V14.01,2013-10-12 18:00:00,
2013-10-12 13:05:00,48.3,42.8,29.94,WSW,246,7.0,16.8,81,0.01,,OVC049,0.01,VWS V14.01,2013-10-12 18:05:00,
2013-10-12 13:10:00,48.7,43.1,29.94,West,271,6.0,12.6,81,0.01,,OVC049,0.01,VWS V14.01,2013-10-12 18:10:00,
2013-10-12 13:15:00,49.1,43.5,29.94,West,275,8.0,17.8,81,0.01,,OVC049,0.01,VWS V14.01,2013-10-12 18:15:00,
2013-10-12 13:20:00,49.5,43.9,29.93,West,281,9.0,12.6,81,0.01,,OVC049,0.01,VWS V14.01,2013-10-12 18:20:00,
2013-10-12 13:25:00,49.8,44.2,29.94,West,259,6.0,12.6,81,0.01,,OVC080,0.01,VWS V14.01,2013-10-12 18:25:00,
2013-10-12 13:30:00,50.1,44.2,29.94,West,277,10.0,13.6,80,0.00,,OVC080,0.01,VWS V14.01,2013-10-12 18:30:00,
2013-10-12 13:40:00,50.5,44.2,29.94,SW,234,5.0,13.6,79,0.00,,OVC080,0.01,VWS V14.01,2013-10-12 18:40:00,
2013-10-12 13:50:00,51.0,43.7,29.94,WNW,287,12.0,17.8,76,0.00,,OVC080,0.01,VWS V14.01,2013-10-12 18:50:00,
2013-10-12 13:55:00,51.3,43.3,29.94,WSW,252,4.0,16.8,74,0.00,,OVC080,0.01,VWS V14.01,2013-10-12 18:55:00,
2013-10-12 14:00:00,51.7,43.0,29.94,WNW,286,9.0,15.7,72,0.00,,OVC080,0.01,VWS V14.01,2013-10-12 19:00:00,
2013-10-12 14:10:00,52.3,42.8,29.94,West,277,6.0,12.6,70,0.00,,OVC080,0.01,VWS V14.01,2013-10-12 19:10:00,
2013-10-12 14:15:00,52.5,43.0,29.94,West,274,8.0,13.6,70,0.00,,OVC080,0.01,VWS V14.01,2013-10-12 19:15:00,
2013-10-12 14:20:00,52.7,43.2,29.94,WNW,297,10.0,13.6,70,0.00,,OVC080,0.01,VWS V14.01,2013-10-12 19:20:00,
2013-10-12 14:25:00,53.0,41.2,29.94,West,269,12.0,19.9,64,0.00,,OVC090,0.01,VWS V14.01,2013-10-12 19:25:00,
2013-10-12 14:30:00,53.4,41.1,29.94,WNW,294,12.0,16.8,63,0.00,,OVC090,0.01,VWS V14.01,2013-10-12 19:30:00,
2013-10-12 14:40:00,54.3,42.0,29.95,SSW,203,11.0,16.8,63,0.00,,OVC090,0.01,VWS V14.01,2013-10-12 19:40:00,
2013-10-12 14:45:00,54.4,40.8,29.95,WNW,298,7.0,17.8,60,0.00,,BKN120,0.01,VWS V14.01,2013-10-12 19:45:00,
2013-10-12 14:55:00,54.2,40.2,29.95,West,272,7.0,18.9,59,0.00,,BKN120,0.01,VWS V14.01,2013-10-12 19:55:00,
2013-10-12 15:00:00,54.4,40.8,29.95,WSW,254,10.0,14.7,60,0.00,,BKN120,0.01,VWS V14.01,2013-10-12 20:00:00,
2013-10-12 15:10:00,54.9,40.9,29.96,WSW,243,9.0,21.0,59,0.00,,BKN110,0.01,VWS V14.01,2013-10-12 20:10:00,
2013-10-12 15:15:00,55.3,41.2,29.96,WNW,302,7.0,15.7,59,0.00,,BKN110,0.01,VWS V14.01,2013-10-12 20:15:00,
2013-10-12 15:20:00,56.0,40.1,29.96,NW,318,13.0,18.9,55,0.00,,BKN110,0.01,VWS V14.01,2013-10-12 20:20:00,
2013-10-12 15:25:00,56.4,39.5,29.96,WNW,301,5.0,16.8,53,0.00,,SCT110,0.01,VWS V14.01,2013-10-12 20:25:00,
2013-10-12 15:30:00,56.3,40.8,29.96,NW,323,9.0,16.8,56,0.00,,SCT110,0.01,VWS V14.01,2013-10-12 20:30:00,
2013-10-12 15:40:00,58.3,40.3,29.96,West,270,7.0,14.7,51,0.00,,SCT110,0.01,VWS V14.01,2013-10-12 20:40:00,
2013-10-12 15:45:00,58.6,39.0,29.96,West,271,11.0,28.3,48,0.00,,SCT065,0.01,VWS V14.01,2013-10-12 20:45:00,
2013-10-12 15:50:00,58.7,38.5,29.97,West,271,14.0,22.0,47,0.00,,SCT065,0.01,VWS V14.01,2013-10-12 20:50:00,
2013-10-12 15:55:00,58.9,38.7,29.97,WSW,254,8.0,18.9,47,0.00,,SCT065,0.01,VWS V14.01,2013-10-12 20:55:00,
2013-10-12 16:00:00,59.0,38.3,29.97,WNW,289,8.0,18.9,46,0.00,,SCT065,0.01,VWS V14.01,2013-10-12 21:00:00,
2013-10-12 16:05:00,59.4,40.2,29.97,West,279,6.0,24.1,49,0.00,,SCT100,0.01,VWS V14.01,2013-10-12 21:05:00,
2013-10-12 16:15:00,57.9,36.1,29.98,WNW,282,13.0,18.9,44,0.00,,SCT100,0.01,VWS V14.01,2013-10-12 21:15:00,
2013-10-12 16:20:00,58.1,37.5,29.98,NW,312,5.0,17.8,46,0.00,,SCT100,0.01,VWS V14.01,2013-10-12 21:20:00,
2013-10-12 16:25:00,57.7,36.0,29.98,WNW,285,9.0,19.9,44,0.00,,SCT100,0.01,VWS V14.01,2013-10-12 21:25:00,
2013-10-12 16:35:00,57.6,38.1,29.99,WNW,286,1.0,15.7,48,0.00,,SCT100,0.01,VWS V14.01,2013-10-12 21:35:00,
2013-10-12 16:40:00,58.0,38.4,29.99,WNW,296,3.0,14.7,48,0.00,,CLR,0.01,VWS V14.01,2013-10-12 21:40:00,
2013-10-12 16:50:00,58.1,37.5,29.99,WNW,302,5.0,13.6,46,0.00,,CLR,0.01,VWS V14.01,2013-10-12 21:50:00,
2013-10-12 16:55:00,58.0,37.4,30.00,WNW,297,2.0,14.7,46,0.00,,CLR,0.01,VWS V14.01,2013-10-12 21:55:00,
2013-10-12 17:00:00,57.8,37.7,30.00,West,275,4.0,14.7,47,0.00,,CLR,0.01,VWS V14.01,2013-10-12 22:00:00,
2013-10-12 17:10:00,58.0,38.4,30.00,WSW,252,8.0,15.7,48,0.00,,SCT065,0.01,VWS V14.01,2013-10-12 22:10:00,
2013-10-12 17:15:00,57.9,39.4,30.00,NW,325,3.0,8.4,50,0.00,,SCT065,0.01,VWS V14.01,2013-10-12 22:15:00,
2013-10-12 17:20:00,57.8,38.8,30.00,NW,304,1.0,7.3,49,0.00,,SCT065,0.01,VWS V14.01,2013-10-12 22:20:00,
2013-10-12 17:25:00,57.7,38.2,30.01,West,275,4.0,15.7,48,0.00,,SCT065,0.01,VWS V14.01,2013-10-12 22:25:00,
2013-10-12 17:30:00,57.5,39.0,30.01,NW,304,3.0,12.6,50,0.00,,SCT065,0.01,VWS V14.01,2013-10-12 22:30:00,
2013-10-12 17:35:00,57.3,38.8,30.01,WNW,297,3.0,8.4,50,0.00,,SCT065,0.01,VWS V14.01,2013-10-12 22:35:00,
2013-10-12 17:40:00,57.2,38.8,30.02,NW,311,0.0,11.5,50,0.00,,SCT065,0.01,VWS V14.01,2013-10-12 22:40:00,
2013-10-12 17:45:00,56.9,38.5,30.02,WSW,242,1.0,2.1,50,0.00,,CLR,0.01,VWS V14.01,2013-10-12 22:45:00,
2013-10-12 17:50:00,56.9,39.5,30.02,West,263,1.0,2.1,52,0.00,,CLR,0.01,VWS V14.01,2013-10-12 22:50:00,
2013-10-12 17:55:00,56.7,38.8,30.02,NW,305,4.0,7.3,51,0.00,,CLR,0.01,VWS V14.01,2013-10-12 22:55:00,
2013-10-12 18:00:00,56.4,38.0,30.02,WNW,300,1.0,9.4,50,0.00,,CLR,0.01,VWS V14.01,2013-10-12 23:00:00,
2013-10-12 18:05:00,56.0,38.6,30.02,West,264,0.0,6.3,52,0.00,,CLR,0.01,VWS V14.01,2013-10-12 23:05:00,
2013-10-12 18:10:00,55.5,38.7,30.03,West,275,2.0,6.3,53,0.00,,CLR,0.01,VWS V14.01,2013-10-12 23:10:00,
2013-10-12 18:15:00,55.0,38.2,30.03,West,262,3.0,7.3,53,0.00,,CLR,0.01,VWS V14.01,2013-10-12 23:15:00,
2013-10-12 18:20:00,54.6,38.3,30.03,WNW,294,5.0,10.5,54,0.00,,CLR,0.01,VWS V14.01,2013-10-12 23:20:00,
2013-10-12 18:30:00,54.2,38.4,30.03,West,273,6.0,10.5,55,0.00,,CLR,0.01,VWS V14.01,2013-10-12 23:30:00,
2013-10-12 18:35:00,53.7,38.4,30.04,WNW,282,4.0,13.6,56,0.00,,CLR,0.01,VWS V14.01,2013-10-12 23:35:00,
2013-10-12 18:40:00,53.4,38.1,30.04,WNW,296,4.0,6.3,56,0.00,,CLR,0.01,VWS V14.01,2013-10-12 23:40:00,
2013-10-12 18:50:00,52.9,38.5,30.05,WNW,291,2.0,8.4,58,0.00,,CLR,0.01,VWS V14.01,2013-10-12 23:50:00,
2013-10-12 18:55:00,52.4,38.5,30.05,West,279,1.0,6.3,59,0.00,,CLR,0.01,VWS V14.01,2013-10-12 23:55:00,
2013-10-12 19:00:00,52.1,38.7,30.06,West,269,0.0,13.6,60,0.00,,CLR,0.01,VWS V14.01,2013-10-13 00:00:00,
2013-10-12 19:05:00,51.7,39.1,30.06,West,273,0.0,9.4,62,0.00,,CLR,0.01,VWS V14.01,2013-10-13 00:05:00,
2013-10-12 19:15:00,50.9,39.2,30.07,West,275,0.0,1.0,64,0.00,,CLR,0.01,VWS V14.01,2013-10-13 00:15:00,
2013-10-12 19:20:00,50.3,39.0,30.07,West,275,0.0,2.1,65,0.00,,CLR,0.01,VWS V14.01,2013-10-13 00:20:00,
2013-10-12 19:30:00,49.2,38.7,30.08,West,275,0.0,2.1,67,0.00,,CLR,0.01,VWS V14.01,2013-10-13 00:30:00,
2013-10-12 19:35:00,48.7,39.0,30.08,West,275,0.0,0.0,69,0.00,,CLR,0.01,VWS V14.01,2013-10-13 00:35:00,
2013-10-12 19:40:00,48.2,38.2,30.08,West,275,0.0,1.0,68,0.00,,CLR,0.01,VWS V14.01,2013-10-13 00:40:00,
2013-10-12 19:45:00,47.8,37.8,30.08,West,275,0.0,1.0,68,0.00,,CLR,0.01,VWS V14.01,2013-10-13 00:45:00,
2013-10-12 19:50:00,47.3,38.0,30.09,West,275,0.0,1.0,70,0.00,,CLR,0.01,VWS V14.01,2013-10-13 00:50:00,
2013-10-12 20:05:00,45.4,38.3,30.09,WSW,244,2.0,4.2,76,0.00,,CLR,0.01,VWS V14.01,2013-10-13 01:05:00,
2013-10-12 20:10:00,45.2,38.4,30.10,WSW,250,0.0,3.1,77,0.00,,CLR,0.01,VWS V14.01,2013-10-13 01:10:00,
2013-10-12 20:15:00,45.2,38.1,30.10,WSW,248,0.0,2.1,76,0.00,,CLR,0.01,VWS V14.01,2013-10-13 01:15:00,
2013-10-12 20:25:00,44.8,37.7,30.10,WSW,247,0.0,1.0,76,0.00,,CLR,0.01,VWS V14.01,2013-10-13 01:25:00,
2013-10-12 20:30:00,44.4,37.7,30.11,WSW,247,0.0,1.0,77,0.00,,CLR,0.01,VWS V14.01,2013-10-13 01:30:00,
2013-10-12 20:40:00,43.8,37.4,30.11,WSW,248,0.0,0.0,78,0.00,,CLR,0.01,VWS V14.01,2013-10-13 01:40:00,
2013-10-12 20:45:00,43.6,37.2,30.11,WSW,240,0.0,2.1,78,0.00,,CLR,0.01,VWS V14.01,2013-10-13 01:45:00,
2013-10-12 20:50:00,43.6,37.2,30.12,WSW,243,3.0,4.2,78,0.00,,CLR,0.01,VWS V14.01,2013-10-13 01:50:00,
2013-10-12 20:55:00,43.6,37.2,30.12,WSW,250,0.0,3.1,78,0.00,,CLR,0.01,VWS V14.01,2013-10-13 01:55:00,
2013-10-12 21:00:00,43.5,37.1,30.12,WSW,251,1.0,3.1,78,0.00,,CLR,0.01,VWS V14.01,2013-10-13 02:00:00,
2013-10-12 21:10:00,43.0,36.9,30.13,WSW,241,2.0,3.1,79,0.00,,CLR,0.01,VWS V14.01,2013-10-13 02:10:00,
2013-10-12 21:15:00,42.9,36.8,30.13,SW,236,3.0,3.1,79,0.00,,CLR,0.01,VWS V14.01,2013-10-13 02:15:00,
2013-10-12 21:20:00,42.8,37.1,30.13,WSW,253,2.0,4.2,80,0.00,,CLR,0.01,VWS V14.01,2013-10-13 02:20:00,
2013-10-12 21:25:00,42.5,36.8,30.13,WSW,239,0.0,6.3,80,0.00,,CLR,0.01,VWS V14.01,2013-10-13 02:25:00,
2013-10-12 21:35:00,42.2,36.8,30.14,SW,231,2.0,5.2,81,0.00,,CLR,0.01,VWS V14.01,2013-10-13 02:35:00,
2013-10-12 21:45:00,42.0,36.6,30.14,WSW,243,0.0,3.1,81,0.00,,CLR,0.01,VWS V14.01,2013-10-13 02:45:00,
2013-10-12 21:50:00,41.7,36.3,30.15,WSW,251,0.0,3.1,81,0.00,,CLR,0.01,VWS V14.01,2013-10-13 02:50:00,
2013-10-12 21:55:00,41.5,36.1,30.15,West,269,1.0,2.1,81,0.00,,CLR,0.01,VWS V14.01,2013-10-13 02:55:00,
2013-10-12 22:00:00,41.4,36.0,30.15,West,269,0.0,1.0,81,0.00,,CLR,0.01,VWS V14.01,2013-10-13 03:00:00,
2013-10-12 22:05:00,41.3,35.9,30.15,West,271,0.0,2.1,81,0.00,,CLR,0.01,VWS V14.01,2013-10-13 03:05:00,
2013-10-12 22:10:00,41.4,36.0,30.15,West,270,0.0,0.0,81,0.00,,CLR,0.01,VWS V14.01,2013-10-13 03:10:00,
2013-10-12 22:15:00,41.5,36.1,30.15,West,265,3.0,4.2,81,0.00,,CLR,0.01,VWS V14.01,2013-10-13 03:15:00,
2013-10-12 22:20:00,41.6,36.2,30.16,WNW,294,0.0,3.1,81,0.00,,CLR,0.01,VWS V14.01,2013-10-13 03:20:00,
2013-10-12 22:25:00,41.7,36.0,30.16,WSW,250,0.0,3.1,80,0.00,,CLR,0.01,VWS V14.01,2013-10-13 03:25:00,
2013-10-12 22:30:00,41.6,35.9,30.16,West,261,0.0,2.1,80,0.00,,CLR,0.01,VWS V14.01,2013-10-13 03:30:00,
2013-10-12 22:40:00,41.1,35.7,30.17,West,260,0.0,1.0,81,0.00,,CLR,0.01,VWS V14.01,2013-10-13 03:40:00,
2013-10-12 22:45:00,41.1,35.7,30.17,West,260,0.0,0.0,81,0.00,,CLR,0.01,VWS V14.01,2013-10-13 03:45:00,
2013-10-12 22:50:00,40.5,35.5,30.17,West,260,0.0,0.0,82,0.00,,CLR,0.01,VWS V14.01,2013-10-13 03:50:00,
2013-10-12 23:00:00,40.1,35.1,30.18,West,269,0.0,1.0,82,0.00,,CLR,0.01,VWS V14.01,2013-10-13 04:00:00,
2013-10-12 23:05:00,40.0,35.0,30.18,West,269,0.0,1.0,82,0.00,,CLR,0.01,VWS V14.01,2013-10-13 04:05:00,
2013-10-12 23:10:00,39.9,34.9,30.18,West,269,0.0,1.0,82,0.00,,CLR,0.01,VWS V14.01,2013-10-13 04:10:00,
2013-10-12 23:15:00,39.9,34.9,30.18,West,270,2.0,2.1,82,0.00,,CLR,0.01,VWS V14.01,2013-10-13 04:15:00,
2013-10-12 23:20:00,39.9,34.9,30.19,West,271,0.0,2.1,82,0.00,,CLR,0.01,VWS V14.01,2013-10-13 04:20:00,
2013-10-12 23:25:00,39.8,34.8,30.19,West,271,0.0,1.0,82,0.00,,CLR,0.01,VWS V14.01,2013-10-13 04:25:00,
2013-10-12 23:30:00,39.7,34.7,30.19,WSW,256,0.0,2.1,82,0.00,,CLR,0.01,VWS V14.01,2013-10-13 04:30:00,
2013-10-12 23:35:00,39.6,34.6,30.20,WSW,247,1.0,2.1,82,0.00,,CLR,0.01,VWS V14.01,2013-10-13 04:35:00,
2013-10-12 23:40:00,39.3,34.3,30.20,SW,234,1.0,2.1,82,0.00,,CLR,0.01,VWS V14.01,2013-10-13 04:40:00,
2013-10-12 23:45:00,39.1,34.1,30.20,WSW,249,0.0,2.1,82,0.00,,CLR,0.01,VWS V14.01,2013-10-13 04:45:00,
2013-10-12 23:50:00,38.9,33.9,30.20,WSW,251,0.0,1.0,82,0.00,,CLR,0.01,VWS V14.01,2013-10-13 04:50:00,
2013-10-12 23:55:00,38.7,33.7,30.20,WSW,254,0.0,1.0,82,0.00,,CLR,0.01,VWS V14.01,2013-10-13 04:55:00,